TimeMDT,TemperatureF,Dew PointF,Humidity,Sea Level PressureIn,VisibilityMPH,Wind Direction,Wind SpeedMPH,Gust SpeedMPH,PrecipitationIn,Events,Conditions,WindDirDegrees,DateUTC
12:55 AM,52.0,37.0,57,29.85,10.0,East,3.5,-,N/A,,Clear,80,2013-05-15 06:55:00
1:55 AM,48.9,37.0,64,29.88,10.0,NNE,5.8,-,N/A,,Clear,20,2013-05-15 07:55:00
2:55 AM,54.0,39.0,57,29.88,10.0,NNE,5.8,-,N/A,,Mostly Cloudy,30,2013-05-15 08:55:00
3:55 AM,52.0,39.9,63,29.90,10.0,Calm,Calm,-,N/A,,Overcast,0,2013-05-15 09:55:00
4:55 AM,50.0,39.0,66,29.92,10.0,Calm,Calm,-,N/A,,Scattered Clouds,0,2013-05-15 10:55:00
5:55 AM,46.9,39.0,74,29.94,10.0,Calm,Calm,-,N/A,,Clear,0,2013-05-15 11:55:00
6:55 AM,51.1,41.0,68,29.95,10.0,West,4.6,-,N/A,,Clear,260,2013-05-15 12:55:00
7:55 AM,62.1,43.0,50,29.95,10.0,South,8.1,-,N/A,,Clear,170,2013-05-15 13:55:00
8:55 AM,66.9,43.0,42,29.96,10.0,SSE,12.7,-,N/A,,Clear,160,2013-05-15 14:55:00
9:55 AM,70.0,43.0,38,29.95,10.0,South,4.6,16.1,N/A,,Mostly Cloudy,170,2013-05-15 15:55:00
10:55 AM,73.0,43.0,34,29.94,10.0,Variable,6.9,-,N/A,,Partly Cloudy,0,2013-05-15 16:55:00
11:55 AM,75.0,43.0,32,29.93,10.0,Calm,Calm,-,N/A,,Clear,0,2013-05-15 17:55:00
12:55 PM,78.1,42.1,28,29.91,10.0,ESE,9.2,-,N/A,,Clear,120,2013-05-15 18:55:00
1:55 PM,78.1,39.9,25,29.89,10.0,East,9.2,-,N/A,,Clear,80,2013-05-15 19:55:00
2:55 PM,78.1,42.1,28,29.86,10.0,East,6.9,-,N/A,,Clear,80,2013-05-15 20:55:00
3:55 PM,80.1,42.1,26,29.83,10.0,South,8.1,-,N/A,,Clear,190,2013-05-15 21:55:00
4:55 PM,80.1,42.1,26,29.82,10.0,SE,10.4,20.7,N/A,,Clear,130,2013-05-15 22:55:00
5:55 PM,80.1,42.1,26,29.82,10.0,SE,11.5,17.3,N/A,,Clear,130,2013-05-15 23:55:00
6:55 PM,77.0,43.0,30,29.81,10.0,ESE,9.2,-,N/A,,Clear,120,2013-05-16 00:55:00
7:55 PM,70.0,44.1,39,29.82,10.0,ESE,6.9,-,N/A,,Clear,110,2013-05-16 01:55:00
8:55 PM,64.9,44.1,47,29.84,10.0,ESE,6.9,-,N/A,,Clear,110,2013-05-16 02:55:00
9:55 PM,64.9,44.1,47,29.83,10.0,East,8.1,-,N/A,,Clear,100,2013-05-16 03:55:00
10:55 PM,60.1,44.1,55,29.83,10.0,East,8.1,-,N/A,,Clear,100,2013-05-16 04:55:00
11:55 PM,60.1,43.0,53,29.82,10.0,East,8.1,-,N/A,,Clear,100,2013-05-16 05:55:00